This is the latest recevied weather packets stored in our database for station/object DG1JLA-3. If no packets are shown the sender has not sent any weather packets the latest 10 day(s).
| Time | Temp. | Humidity | Pressure | Rain* | Wind** | Luminosity | Snow |
|---|---|---|---|---|---|---|---|
| 1777709402 | 20° C | 51% | 1026.5 hPa | 0 mm | - | - | - |
| 1777709102 | 19.44° C | 54% | 1026.5 hPa | 0 mm | - | - | - |
| 1777708802 | 19.44° C | 54% | 1026.6 hPa | 0 mm | - | - | - |
| 1777708502 | 18.89° C | 56% | 1026.7 hPa | 0 mm | - | - | - |
| 1777708202 | 18.33° C | 56% | 1026.7 hPa | 0 mm | - | - | - |
| 1777707902 | 18.33° C | 57% | 1026.8 hPa | 0 mm | - | - | - |
| 1777707602 | 17.78° C | 58% | 1026.8 hPa | 0 mm | - | - | - |
| 1777707302 | 17.22° C | 59% | 1026.8 hPa | 0 mm | - | - | - |
| 1777707002 | 16.67° C | 60% | 1026.8 hPa | 0 mm | - | - | - |
| 1777706702 | 16.11° C | 61% | 1026.9 hPa | 0 mm | - | - | - |
| 1777706402 | 16.11° C | 61% | 1027 hPa | 0 mm | - | - | - |
| 1777706102 | 15.56° C | 63% | 1026.9 hPa | 0 mm | - | - | - |
| 1777705802 | 15° C | 63% | 1027 hPa | 0 mm | - | - | - |
| 1777705502 | 14.44° C | 66% | 1027 hPa | 0 mm | - | - | - |
| 1777705202 | 13.89° C | 66% | 1027 hPa | 0 mm | - | - | - |
| 1777704902 | 13.89° C | 65% | 1027.1 hPa | 0 mm | - | - | - |
| 1777704602 | 13.89° C | 66% | 1026.9 hPa | 0 mm | - | - | - |
| 1777704302 | 13.89° C | 67% | 1027.1 hPa | 0 mm | - | - | - |
| 1777704002 | 13.33° C | 67% | 1027 hPa | 0 mm | - | - | - |
| 1777703702 | 12.78° C | 68% | 1027.1 hPa | 0 mm | - | - | - |
| 1777703402 | 12.22° C | 69% | 1027.2 hPa | 0 mm | - | - | - |
| 1777703102 | 11.67° C | 70% | 1027.2 hPa | 0 mm | - | - | - |
| 1777702802 | 11.67° C | 70% | 1027.3 hPa | 0 mm | - | - | - |
| 1777702502 | 11.67° C | 69% | 1027.2 hPa | 0 mm | - | - | - |
| 1777702202 | 11.11° C | 71% | 1027.2 hPa | 0 mm | - | - | - |
* Rain latest hour (hover to see other rain measurements)
** Current wind speed in m/s (hover to see current wind gust speed)